TimeMDT,TemperatureF,Dew PointF,Humidity,Sea Level PressureIn,VisibilityMPH,Wind Direction,Wind SpeedMPH,Gust SpeedMPH,PrecipitationIn,Events,Conditions,WindDirDegrees,DateUTC
12:53 AM,48.9,30.0,48,29.86,10.0,Calm,Calm,-,N/A,,Clear,0,2012-10-09 06:53:00
1:53 AM,48.2,30.2,50,29.96,10.0,South,4.6,-,N/A,,Clear,190,2012-10-09 07:53:00
2:53 AM,46.9,32.0,56,29.89,10.0,SE,4.6,-,N/A,,Clear,140,2012-10-09 08:53:00
3:53 AM,46.9,32.0,56,29.88,10.0,SSE,9.2,-,N/A,,Partly Cloudy,150,2012-10-09 09:53:00
4:53 AM,48.0,30.0,50,29.89,10.0,ESE,10.4,-,N/A,,Clear,120,2012-10-09 10:53:00
5:53 AM,52.0,27.0,38,29.89,10.0,ESE,5.8,-,N/A,,Clear,110,2012-10-09 11:53:00
6:53 AM,50.0,27.0,41,29.92,10.0,SE,5.8,-,N/A,,Partly Cloudy,130,2012-10-09 12:53:00
7:53 AM,45.0,30.9,58,29.95,10.0,SSE,4.6,-,N/A,,Scattered Clouds,150,2012-10-09 13:53:00
8:53 AM,53.1,30.9,43,29.95,10.0,Calm,Calm,-,N/A,,Scattered Clouds,0,2012-10-09 14:53:00
9:53 AM,57.9,28.9,33,29.97,10.0,Calm,Calm,-,N/A,,Scattered Clouds,0,2012-10-09 15:53:00
10:53 AM,62.1,34.0,35,29.97,10.0,NW,6.9,-,N/A,,Scattered Clouds,320,2012-10-09 16:53:00
11:53 AM,64.9,33.1,31,29.96,10.0,NW,4.6,-,N/A,,Scattered Clouds,320,2012-10-09 17:53:00
12:53 PM,69.1,30.9,24,29.96,10.0,North,5.8,-,N/A,,Scattered Clouds,360,2012-10-09 18:53:00
1:53 PM,70.0,30.9,24,29.94,10.0,NW,5.8,-,N/A,,Scattered Clouds,310,2012-10-09 19:53:00
2:53 PM,73.0,28.0,19,29.93,10.0,NNW,8.1,-,N/A,,Scattered Clouds,340,2012-10-09 20:53:00
3:53 PM,73.9,28.0,18,29.91,10.0,NNW,10.4,-,N/A,,Scattered Clouds,330,2012-10-09 21:53:00
4:53 PM,73.0,27.0,18,29.91,10.0,NNW,9.2,-,N/A,,Scattered Clouds,340,2012-10-09 22:53:00
5:53 PM,71.1,26.1,19,29.90,10.0,NNW,9.2,-,N/A,,Scattered Clouds,330,2012-10-09 23:53:00
6:53 PM,64.9,28.0,25,29.92,10.0,NNW,6.9,-,N/A,,Scattered Clouds,330,2012-10-10 00:53:00
7:53 PM,60.1,34.0,38,29.95,10.0,Calm,Calm,-,N/A,,Scattered Clouds,0,2012-10-10 01:53:00
8:53 PM,59.0,30.0,33,29.95,10.0,South,4.6,-,N/A,,Scattered Clouds,190,2012-10-10 02:53:00
9:53 PM,55.9,30.9,39,29.95,10.0,SSE,5.8,-,N/A,,Partly Cloudy,160,2012-10-10 03:53:00
10:53 PM,55.0,28.0,35,29.94,10.0,SSE,8.1,-,N/A,,Partly Cloudy,160,2012-10-10 04:53:00
11:53 PM,52.0,30.0,43,29.94,10.0,SE,6.9,-,N/A,,Partly Cloudy,140,2012-10-10 05:53:00